Zurück zum Katalog

PRAETORIAN SDA_619

AktivMilitärPO
NORAD 65582·PAYLOAD·🇺🇸 United States

Gestartet Sep 10, 2025 von Vandenberg Space Force Base

Loading…

Nächste Überflüge (nächste 24 Stunden)

TLE

AktuellSource: Space-Track

Epoche: Sep 14, 2026, 12:40 UTC

1 65582U 25203T   26257.52837759  .00000167  00000-0  14045-3 0  9997
2 65582  81.3018 288.1248 0007309 314.2594  45.7962 13.83730766 51686

Verfolge PRAETORIAN SDA_619 in Echtzeit mit AllMySat

Download on the App Store